Location: Putah Creek Observatory
(38.7021°N, 122.3865°W)
Time: 23:28:16
(UTC-08:00)

Daily predictions for brighter satellites

Satellite Brightness Start Highest point End
(mag) Time Altitude Azimuth Time Altitude Azimuth Time Altitude Azimuth
USA 161 4.0 17:40:11 10° NNW 17:41:36 15° WNW 17:42:55 10° WSW
IRAS Rocket 4.2 17:37:18 10° SSE 17:42:46 72° ENE 17:48:19 10° N
Meteor 2-1 Rocket 4.4 17:39:01 10° N 17:44:49 87° E 17:50:42 10° S
Meteor 2-21 4.5 17:39:35 10° N 17:45:37 59° E 17:51:33 10° SSE
SeaSat 1 3.9 17:41:38 10° S 17:46:20 44° WSW 17:51:04 10° NW
Cosmos 1484 Rocket 3.5 17:45:55 10° S 17:49:41 58° W 17:53:26 10° NNW
AQUARIUS 4.4 17:47:59 10° S 17:52:27 75° WSW 17:56:59 10° NNW
NOSS 3-3 (A) 4.0 17:47:16 10° SSW 17:53:16 86° ESE 17:59:51 10° NE
NOSS 3-3 (C) 4.0 17:47:23 10° SSW 17:53:22 85° ESE 17:59:57 10° NE
Cosmos 2221 2.8 17:51:24 10° N 17:55:37 45° E 17:59:49 10° SSE
Cosmos 1354 Rocket 4.0 17:51:11 10° NNW 17:56:30 76° ENE 18:01:48 10° SSE
Cosmos 1300 3.7 17:53:30 10° NNE 17:56:44 25° ENE 17:59:55 10° SE
Cosmos 2369 Rocket 2.2 17:51:39 10° NNW 17:57:17 62° ENE 18:02:54 10° SE
Cosmos 1315 Rocket 4.1 17:55:32 10° SE 17:58:31 21° E 18:01:28 10° NE
Cosmos 1626 3.9 17:57:21 10° ESE 17:59:08 13° E 18:00:04 12° ENE
Tiangong 1 1.5 17:58:21 10° WNW 18:00:39 33° N 18:02:22 15° NE
SPOT 3 Rocket 4.1 17:56:24 10° SE 18:01:01 35° ENE 18:05:40 10° N
Ariane Rocket 3.5 17:58:19 10° S 18:03:20 65° WSW 18:08:23 10° NNW
CORIOLIS 4.5 17:58:19 10° S 18:03:38 73° WSW 18:08:59 10° NNW
COSMO-SKYMED 1 2.6 17:59:47 10° NNE 18:04:05 59° E 18:08:21 10° S
CZ-4 R/B 4.3 18:01:53 10° SSE 18:05:58 72° ENE 18:10:05 10° N
Cosmos 1295 Rocket 4.4 18:04:09 10° N 18:10:15 78° E 18:16:23 10° S
CZ-2C R/B 4.0 18:08:41 10° N 18:13:25 73° WNW 18:18:02 10° SSW
Cosmos 44 4.4 18:10:30 10° SSE 18:13:43 21° ESE 18:15:21 17° E
ERS-2 2.9 18:10:53 10° SE 18:14:05 29° ENE 18:17:19 10° N
GEOS 3 Rocket 4.5 18:11:18 10° ESE 18:15:53 31° NE 18:20:32 10° NNW
IRS-1A Rocket 4.3 18:11:08 10° SSE 18:16:38 83° WSW 18:22:16 10° NNW
Cosmos 1943 Rocket 2.1 18:14:12 10° NNW 18:19:46 62° ENE 18:25:14 10° SE
Cosmos 2366 rocket 4.1 18:20:09 10° N 18:26:16 53° E 18:32:16 10° SSE
Cosmos 1076 Rocket 3.5 18:24:58 10° S 18:29:19 88° E 18:33:43 10° N
Cosmos 44 Rocket 4.2 18:26:49 10° SSE 18:30:42 27° ESE 18:31:54 24° E
Cosmos 1400 Rocket 3.2 18:27:11 10° SSW 18:31:10 67° W 18:35:15 10° N
Cosmos 1328 3.9 18:27:27 10° S 18:31:20 52° E 18:35:06 11° NNE
H-2A R/B 3.2 18:28:50 10° SE 18:32:17 35° ENE 18:35:48 10° N
NOAA 12 4.0 18:27:53 10° SSE 18:33:06 77° ENE 18:38:21 10° N
Meteor 2-8 Rocket 4.4 18:27:07 10° S 18:33:09 65° E 18:39:15 10° NNE
Cosmos 2084 4.5 18:29:40 10° NW 18:33:18 42° WSW 18:37:00 10° S
COSMOS 2406 4.3 18:31:20 10° SSE 18:35:37 22° E 18:35:58 22° E
Meteor 2-2 Rocket 4.4 18:31:00 10° N 18:36:37 51° ENE 18:42:06 10° SSE
Okean 3 Rocket 3.9 18:33:32 10° SSW 18:38:03 70° W 18:42:35 10° N
Cosmos 2098 Rocket 4.2 18:35:02 10° NNE 18:39:39 35° E 18:45:15 10° SE
FENGYUN 3A 3.7 18:35:03 10° SSE 18:40:23 83° WSW 18:45:46 10° NNW
MOS 1 4.4 18:35:01 10° S 18:40:39 79° WSW 18:46:20 10° NNW
Cosmos 1766 Rocket 3.4 18:38:53 10° S 18:43:11 69° E 18:47:28 10° NNE
OAO 3 Rocket 3.6 18:41:26 10° WSW 18:46:00 53° S 18:48:05 30° ESE
Cosmos 1726 4.2 18:48:33 10° NNW 18:51:45 29° W 18:54:56 10° SSW
BREEZE-M DEB (TANK) 3.0 18:48:32 10° WSW 18:52:56 35° NW 18:53:40 30° N
EO 1 Del DPAF 4.2 18:54:46 10° N 18:58:28 46° WNW 19:02:07 10° SSW
Cosmos 968 Rocket 3.8 18:54:05 10° NNW 18:59:11 64° WSW 19:04:14 10° S
SL-24 R/B - RUBIN 2 4.2 18:56:37 10° NNW 19:00:13 38° NNE 19:00:13 38° NNE
ALOS 3.5 18:57:34 10° S 19:02:00 43° W 19:06:27 10° NNW
Cosmos 1703 3.8 19:01:23 10° S 19:04:19 44° SSE 19:04:19 44° SSE
ATLAS 2AS CENTAUR R/B 4.0 19:08:53 10° NW 19:16:10 44° WSW 19:22:52 10° S
Thor Agena Rocket 3.4 19:23:22 46° NNE 19:25:02 86° ESE 19:30:16 10° SSW
Cosmos 1626 3.8 19:30:46 10° SW 19:34:07 32° WNW 19:34:46 30° NW
NOSS 3-4 (A) 3.7 19:31:49 10° NNW 19:38:57 82° ENE 19:41:06 51° SE
NOSS 3-4 (C) 3.7 19:31:55 10° NNW 19:39:03 81° ENE 19:41:06 52° SE
USA 81 4.5 19:47:37 10° SSW 19:52:49 60° W 19:53:00 59° WNW
GEOS 3 Rocket 4.4 19:52:12 38° SSW 19:53:41 49° WSW 19:58:52 10° NW
COSMOS 2406 4.3 20:14:00 10° SW 20:18:07 40° WSW 20:18:07 40° WSW
